TimeEST,TemperatureF,Dew PointF,Humidity,Sea Level PressureIn,VisibilityMPH,Wind Direction,Wind SpeedMPH,Gust SpeedMPH,PrecipitationIn,Events,Conditions,WindDirDegrees,DateUTC
12:04 AM,24.8,21.2,86,30.05,9.0,West,4.6,-,0.00,Snow,Light Snow,280,2012-12-25 05:04:00
12:54 AM,24.1,21.0,88,30.09,10.0,WNW,4.6,-,0.00,,Overcast,290,2012-12-25 05:54:00
1:19 AM,24.8,21.2,86,30.05,7.0,NW,4.6,-,0.00,Snow,Light Snow,310,2012-12-25 06:19:00
1:54 AM,23.0,19.9,88,30.10,10.0,WNW,3.5,-,0.00,,Scattered Clouds,300,2012-12-25 06:54:00
2:54 AM,21.0,18.0,88,30.12,10.0,NW,4.6,-,N/A,,Partly Cloudy,310,2012-12-25 07:54:00
3:54 AM,23.0,18.0,81,30.15,10.0,WNW,4.6,-,N/A,,Overcast,300,2012-12-25 08:54:00
4:54 AM,23.0,18.0,81,30.17,10.0,WNW,4.6,-,N/A,,Overcast,300,2012-12-25 09:54:00
5:54 AM,23.0,17.1,78,30.20,10.0,West,5.8,-,N/A,,Overcast,270,2012-12-25 10:54:00
6:54 AM,21.9,17.1,82,30.24,10.0,WNW,4.6,-,N/A,,Overcast,290,2012-12-25 11:54:00
7:54 AM,21.9,17.1,82,30.26,9.0,WNW,3.5,-,0.00,,Overcast,290,2012-12-25 12:54:00
8:11 AM,21.2,17.6,86,30.23,10.0,WNW,3.5,-,N/A,,Overcast,290,2012-12-25 13:11:00
8:54 AM,23.0,18.0,81,30.28,9.0,West,3.5,-,0.00,,Overcast,270,2012-12-25 13:54:00
9:54 AM,24.1,18.0,77,30.30,10.0,WNW,3.5,-,N/A,,Overcast,300,2012-12-25 14:54:00
10:54 AM,25.0,19.0,78,30.33,5.0,WNW,4.6,-,0.00,Snow,Light Snow,300,2012-12-25 15:54:00
11:09 AM,24.8,19.4,80,30.29,2.0,NW,5.8,-,0.00,Snow,Light Snow,320,2012-12-25 16:09:00
11:54 AM,26.1,21.0,81,30.32,8.0,Variable,4.6,-,0.00,Snow,Light Snow,0,2012-12-25 16:54:00
12:46 PM,26.6,19.4,74,30.27,2.5,NNW,5.8,-,0.00,Snow,Light Snow,340,2012-12-25 17:46:00
12:54 PM,26.1,19.9,78,30.31,3.0,NNW,9.2,-,0.00,Snow,Light Snow,340,2012-12-25 17:54:00
1:13 PM,26.6,21.2,80,30.26,4.0,North,9.2,-,0.00,Snow,Light Snow,350,2012-12-25 18:13:00
1:54 PM,27.0,21.0,78,30.31,10.0,NNW,4.6,-,0.00,,Overcast,340,2012-12-25 18:54:00
2:54 PM,27.0,19.0,72,30.34,10.0,Calm,Calm,-,N/A,,Overcast,0,2012-12-25 19:54:00
3:12 PM,26.6,19.4,74,30.30,7.0,North,9.2,-,0.00,Snow,Light Snow,360,2012-12-25 20:12:00
3:45 PM,26.6,19.4,74,30.33,9.0,NW,3.5,-,0.00,Snow,Light Snow,310,2012-12-25 20:45:00
3:54 PM,27.0,19.9,75,30.39,7.0,Calm,Calm,-,0.00,Snow,Light Snow,0,2012-12-25 20:54:00
4:54 PM,26.1,21.0,81,30.37,10.0,NW,3.5,-,0.00,,Overcast,320,2012-12-25 21:54:00
5:10 PM,26.6,21.2,80,30.34,6.0,North,3.5,-,0.00,Snow,Light Snow,360,2012-12-25 22:10:00
5:25 PM,24.8,21.2,86,30.34,8.0,North,6.9,-,0.00,,Overcast,10,2012-12-25 22:25:00
5:36 PM,24.8,21.2,86,30.33,8.0,North,5.8,-,0.00,Snow,Light Snow,10,2012-12-25 22:36:00
5:54 PM,23.0,19.9,88,30.38,8.0,North,4.6,-,0.00,,Overcast,10,2012-12-25 22:54:00
6:54 PM,25.0,21.9,88,30.39,7.0,Calm,Calm,-,0.00,Snow,Light Snow,0,2012-12-25 23:54:00
7:54 PM,25.0,21.9,88,30.40,10.0,Calm,Calm,-,0.00,,Overcast,0,2012-12-26 00:54:00
8:54 PM,25.0,21.9,88,30.42,10.0,Calm,Calm,-,0.00,,Overcast,0,2012-12-26 01:54:00
9:54 PM,25.0,21.0,85,30.41,10.0,Calm,Calm,-,N/A,,Overcast,0,2012-12-26 02:54:00
10:54 PM,25.0,19.9,81,30.41,10.0,NNW,3.5,-,N/A,,Overcast,330,2012-12-26 03:54:00
11:08 PM,24.8,19.4,80,30.37,10.0,NW,3.5,-,N/A,,Overcast,320,2012-12-26 04:08:00
11:34 PM,24.8,19.4,80,30.36,10.0,NNW,3.5,-,N/A,,Overcast,330,2012-12-26 04:34:00
11:54 PM,24.1,19.9,84,30.39,10.0,NNW,3.5,-,N/A,,Overcast,340,2012-12-26 04:54:00